Location: Recife
(8.0585°S, 34.8848°W)
Time: 08:31:41
(UTC-03:00)

Courier 1B - Pass Details

Date: 14 April 2026
Orbit: 962 x 1209 km, 28.3° (Epoch: 13 May)

Event Time Altitude Azimuth Distance (km) Brightness Sun altitude
Rises 17:46:22 0° 271° (W) 3,741 12.9 -7.9°
Reaches altitude 10° 17:50:07 10° 290° (WNW) 2,747 11.4 -8.8°
Maximum altitude 17:54:15 17° 329° (NNW) 2,228 9.9 -9.8°
Drops below altitude 10° 17:58:19 10° 9° (N) 2,685 9.8 -10.8°
Sets 18:01:56 0° 28° (NNE) 3,621 10.3 -11.7°
